Voltar ao catálogo

ATLAS 2A CENTAUR R/B

AtivoHEO
NORAD 26389·ROCKET BODY·🇺🇸 United States

Lançado Jun 30, 2000 de Cape Canaveral Space Force Station

Loading…

Próximas Passagens (próximas 24 horas)

TLE

AtualizadoSource: Space-Track

Época: Sep 14, 2026, 10:35 UTC

1 26389U 00034B   26257.44097943  .00011473  00000-0  12260-2 0  9996
2 26389  26.8351 246.3480 4848171  37.4291 348.1092  5.90638620423196

Acompanhe ATLAS 2A CENTAUR R/B em tempo real com AllMySat

Download on the App Store